Volver al catálogo

NasbSat-1

ActivoCienciaSSO
NORAD 67289·PAYLOAD·🇧🇾 Belarus

Lanzado Dec 28, 2025 desde Vostochny Cosmodrome

Loading…

Próximos Pases (próximas 24 horas)

TLE

ActualizadoSource: Space-Track

Época: Sep 14, 2026, 11:32 UTC

1 67289U 25313AT  26257.48085340  .00010306  00000-0  37999-3 0  9990
2 67289  97.3860 331.7860 0009586  47.3798 312.8248 15.27944594 39618

Sigue NasbSat-1 en tiempo real con AllMySat

Download on the App Store